KINEIS-5B

Last updated on Thu Sep 24 2026 00:03:12 GMT+0000 (Coordinated Universal Time)

1 62085U 24219E 26266.59082984 .00000731 00000+0 10730-3 0 9990 2 62085 98.0173 69.9316 0001219 358.7118 1.4089 14.78500580 98547
UTC large
Height (km)
Speed (km/s)
/
Latitude / Longitude
Inclination (degrees)
Orbital Period (minutes)
Azimuth
Elevation
Range (km)
Doppler Factor

Next 0 passes for location: London (51.5072 / 0.1276)

No passes found over London.
KINEIS-5B